Theta_e
360 361 356 352 352 352 350 352 350 338 343 350 348 359 359 358 353 356 350 340 339 339 338 339 339 340 341 342 344 349 353 353 353 354 354 354 353 353
354 363 363 355 362 352 351 349 351 345 339 348 350 357 358 357 353 353 344 340 337 336 335 335 335 336 337 337 338 340 345 350 351 351 352 352 351 350
361 360 362 367 356 354 351 348 354 354 344 349 356 361 362 355 352 349 345 344 338 333 332 331 331 331 332 333 334 335 337 341 347 349 348 348 349 348
358 361 358 355 366 366 355 366 362 355 357 354 360 355 358 358 353 350 345 341 335 331 329 328 328 327 327 327 328 330 333 336 336 337 345 347 347 347
359 360 357 360 360 357 358 362 355 350 354 348 356 367 356 356 351 343 340 336 333 330 328 327 327 326 326 325 325 325 327 330 329 331 334 342 341 342
359 363 358 361 360 363 357 364 361 357 357 350 359 358 351 354 341 335 332 334 334 332 328 327 328 327 325 324 325 323 320 319 319 321 323 326 329 331
361 359 361 359 354 355 357 363 367 356 350 355 358 357 349 344 339 338 335 331 331 332 328 330 330 328 325 326 324 322 319 318 317 317 317 317 319 321
360 364 364 356 354 348 346 347 353 359 355 350 358 354 354 348 345 339 333 327 324 328 322 319 323 319 320 321 321 320 319 318 317 316 315 315 315 315
363 364 358 353 355 360 345 340 341 342 347 362 357 354 358 355 349 341 334 333 331 326 320 315 320 317 320 319 319 318 317 316 315 315 314 313 313 312
360 364 363 363 364 362 359 357 354 355 352 351 357 357 360 365 355 348 340 326 323 322 321 312 316 315 317 318 318 316 315 314 314 313 312 311 309 309
360 359 361 363 349 337 358 359 359 361 334 331 331 334 338 345 352 338 326 323 318 318 318 313 313 312 314 314 317 315 313 313 312 312 312 310 308 308
359 360 340 347 333 329 358 359 357 358 355 347 346 340 346 345 338 348 337 330 320 315 317 312 311 311 307 313 313 314 312 311 310 311 311 310 308 312
348 352 355 331 326 321 330 360 356 360 351 353 350 347 349 349 347 348 344 341 329 323 320 316 312 313 312 308 312 316 314 310 312 312 309 310 310 311
349 349 356 327 318 320 326 332 328 333 358 352 345 341 339 337 337 339 339 336 332 325 318 319 313 314 310 308 308 313 314 315 317 316 318 313 310 311
347 339 326 315 315 318 320 323 324 352 356 348 344 341 338 333 331 328 326 325 320 319 320 321 316 317 317 314 314 314 315 316 321 319 321 320 320 322
332 338 332 329 324 329 326 328 341 347 351 345 341 334 329 326 325 325 320 320 319 318 323 324 322 321 318 325 320 318 320 317 322 322 323 322 323 323
333 332 330 330 330 330 332 332 333 329 328 326 324 322 321 322 323 325 323 323 320 320 323 323 324 325 332 328 322 322 322 321 322 322 323 320 323 323
326 327 328 329 327 326 326 326 327 324 322 323 322 322 321 322 323 324 324 323 321 322 324 327 328 327 325 326 323 323 324 320 321 325 323 320 318 321
328 326 324 324 324 324 324 325 323 324 323 321 321 320 321 321 320 320 321 321 321 322 323 324 324 323 318 314 320 310 320 322 321 319 320 318 318 320
325 323 321 319 318 318 318 316 317 319 319 320 321 321 321 320 321 321 320 319 320 320 321 323 322 321 318 315 315 319 306 319 317 317 317 318 313 314
319 319 319 319 318 318 318 318 318 318 318 319 319 320 322 320 319 319 318 312 315 318 316 317 323 319 327 323 316 316 317 308 314 320 322 315 312 312
317 317 318 318 319 319 320 319 317 317 318 318 319 321 324 323 320 320 320 318 318 319 320 322 325 327 325 316 313 316 315 316 312 312 311 313 313 310
320 319 319 318 319 319 318 317 317 318 320 320 322 324 325 323 322 322 320 319 318 318 320 319 319 322 320 318 316 315 317 315 312 311 313 311 312 312
Wind_Speed
6 7 7 9 3 4 5 1 3 1 2 5 4 6 7 7 10 10 9 10 9 9 9 10 11 11 12 12 12 11 7 4 2 2 4 5 5 6
7 6 7 9 2 4 5 7 5 4 2 4 5 6 8 9 7 8 11 11 10 10 10 10 10 10 10 10 11 11 10 7 5 4 3 3 1 3
9 4 8 7 7 6 5 7 4 3 5 2 7 5 8 10 8 9 7 8 8 11 12 12 13 12 11 10 8 8 9 10 9 6 4 4 4 4
11 9 9 8 5 8 8 3 3 2 2 3 2 5 4 8 9 7 7 7 7 11 13 13 12 13 13 11 10 6 5 7 8 8 7 7 7 7
10 10 9 9 7 9 5 6 6 6 5 5 4 4 3 6 8 7 7 8 6 11 12 13 13 13 14 12 9 6 3 6 6 6 6 9 11 13
10 12 9 11 9 8 7 8 7 3 5 4 3 5 6 6 5 6 5 5 6 6 10 8 8 11 13 13 12 11 10 10 10 11 12 12 15 21
11 11 11 11 4 3 7 7 5 5 7 6 5 5 6 5 7 5 6 6 4 3 5 4 5 7 8 10 14 16 17 16 17 19 21 20 20 20
11 11 10 8 8 5 6 4 5 7 7 4 2 5 8 8 8 7 7 4 3 4 6 6 5 6 6 6 15 17 19 19 19 21 22 23 22 22
11 10 11 11 14 12 9 7 8 8 8 6 5 6 7 10 10 9 8 7 4 8 8 4 3 6 5 7 15 16 17 17 17 17 18 18 19 18
9 11 12 12 8 11 11 11 12 12 11 9 10 8 7 8 12 9 9 7 9 5 5 4 1 4 4 5 14 13 14 14 14 14 15 16 16 15
12 12 12 13 12 12 12 11 11 9 5 9 6 6 6 7 9 10 8 9 3 3 2 4 4 4 2 3 5 10 11 10 11 11 13 14 15 14
11 12 13 12 12 12 13 11 10 10 8 6 7 5 5 5 18 13 12 10 5 3 5 4 7 4 3 1 3 3 6 6 9 8 7 9 11 9
12 12 9 13 15 12 14 11 12 8 6 7 5 4 5 7 4 3 9 8 8 3 10 5 7 5 3 4 2 4 5 4 4 7 6 5 6 4
12 8 7 10 10 11 11 11 7 8 6 6 8 7 6 5 4 4 5 6 4 4 15 6 7 5 6 5 4 7 8 8 8 8 8 9 9 8
11 8 5 9 8 6 11 7 7 7 9 8 8 7 7 6 7 6 8 10 10 12 9 5 10 8 7 6 9 10 11 9 9 9 8 8 6 7
10 8 1 3 5 4 6 6 5 5 7 7 7 6 6 6 5 6 7 7 8 7 5 6 9 9 7 6 11 10 10 7 10 10 9 8 7 7
5 3 2 3 4 4 4 6 5 6 4 4 6 7 7 7 7 6 7 5 8 7 4 7 10 11 5 9 10 10 11 8 9 8 7 7 6 8
3 3 4 4 6 6 6 6 5 7 6 7 7 7 8 6 6 7 9 6 6 6 6 6 8 8 7 3 2 9 6 8 8 9 8 9 10 7
2 3 3 3 2 3 4 5 6 5 8 8 9 8 7 7 8 7 6 7 5 6 7 8 7 8 9 8 3 5 8 7 8 7 7 7 7 5
2 2 2 3 4 4 5 5 6 6 5 6 9 7 9 9 5 4 6 7 7 7 6 5 7 9 9 9 8 6 8 7 8 8 7 4 6 8
4 4 4 4 4 6 7 7 8 8 7 9 7 5 5 5 6 3 5 7 8 8 8 9 5 2 3 9 7 5 3 6 4 3 5 6 6 6
4 5 5 5 5 6 6 8 9 9 8 7 6 3 4 5 7 9 9 9 7 5 5 4 4 3 3 9 9 10 7 7 6 5 6 3 2 6
4 4 5 5 6 6 7 7 7 7 6 7 6 7 9 8 7 6 6 7 7 8 7 7 6 5 6 7 7 10 12 9 8 7 7 9 9 9
Wind_Direction
231 221 256 276 262 272 275 156 132 132 234 195 197 140 140 163 141 120 117 103 90 74 63 54 49 49 48 42 41 35 41 52 66 148 213 215 222 237
224 231 251 261 291 237 272 280 135 195 187 164 225 152 106 91 79 103 110 105 82 78 70 61 53 43 40 42 41 39 34 45 69 83 124 133 133 179
260 199 234 265 285 296 238 235 204 180 211 156 147 124 132 132 132 121 164 123 93 80 74 65 57 44 30 23 29 41 43 43 48 60 71 85 87 82
236 238 245 245 211 267 279 320 24 59 247 282 101 141 172 140 147 163 109 98 102 87 82 69 58 48 35 20 11 13 42 47 50 51 66 90 90 81
231 247 222 243 242 264 249 280 224 245 208 217 185 159 139 158 128 108 116 120 110 126 111 89 67 54 42 27 26 32 67 63 57 59 68 88 88 90
226 239 233 240 228 232 242 253 259 238 244 231 141 165 165 153 126 135 139 140 142 111 77 80 63 65 56 38 42 57 72 88 89 84 88 95 106 108
249 239 221 243 239 219 233 222 268 254 254 229 177 161 167 163 174 164 155 148 121 123 93 60 50 48 35 56 67 74 77 77 82 85 86 85 85 87
238 234 244 196 199 189 227 257 254 229 248 291 236 204 202 190 179 169 144 152 151 149 106 68 66 68 58 61 77 82 83 82 82 85 87 86 84 85
233 247 245 227 199 213 204 224 236 233 252 254 233 206 213 191 175 172 169 176 150 141 120 83 68 85 77 80 79 78 79 82 84 87 91 93 96 97
251 240 237 259 233 215 223 206 223 219 220 231 229 245 220 177 182 170 157 106 93 100 111 108 89 94 84 84 92 92 94 95 96 98 102 104 105 107
237 236 243 236 238 202 225 238 238 215 119 100 85 66 86 139 161 123 138 144 127 152 140 119 153 108 73 82 94 97 97 100 107 117 123 123 117 117
238 243 234 245 247 213 216 229 236 230 201 165 184 164 169 145 148 170 166 173 136 135 170 115 154 151 131 111 115 135 125 103 122 137 154 157 167 134
225 217 220 227 220 219 212 222 226 239 208 187 202 168 161 149 148 189 168 173 170 133 166 129 164 157 92 133 146 203 141 158 172 158 172 201 236 291
263 259 217 228 219 230 210 237 224 207 197 190 190 171 176 166 154 123 113 90 70 137 156 145 142 161 139 138 154 177 187 181 186 168 184 179 220 235
263 312 152 165 176 187 222 239 195 212 200 201 189 184 166 128 121 101 87 91 89 122 139 147 147 146 169 164 152 172 175 186 197 173 170 183 182 175
251 245 234 152 189 174 159 189 197 247 217 214 153 126 126 136 140 135 119 120 119 131 160 136 155 159 198 175 156 165 182 185 188 183 165 183 181 201
213 149 164 158 171 169 190 194 166 137 131 134 144 137 148 142 138 132 122 135 136 147 147 153 185 205 229 158 161 175 187 166 174 155 179 189 197 200
205 200 205 194 180 177 176 175 172 155 148 149 142 144 147 146 135 139 134 139 140 139 138 162 189 177 133 156 232 173 163 153 173 168 209 207 201 187
234 185 198 181 178 183 190 191 186 177 156 153 149 137 135 131 135 134 125 115 153 148 164 183 165 157 174 171 111 37 175 166 151 172 221 232 191 167
157 155 133 131 129 123 111 104 99 107 102 107 112 111 119 129 142 149 146 149 161 151 163 175 177 186 191 166 171 161 18 151 186 190 195 143 99 108
74 85 104 113 114 116 120 120 118 114 111 101 93 106 117 116 128 154 115 155 178 173 180 186 173 92 268 136 164 158 141 67 54 203 188 194 183 188
71 79 81 83 91 100 112 115 112 111 114 127 120 131 143 158 170 182 186 170 181 172 173 125 135 163 189 180 183 162 178 173 164 128 103 119 328 220
85 87 87 98 94 96 103 112 114 122 132 142 163 180 183 195 185 187 137 157 175 188 172 167 184 194 214 227 222 168 182 177 198 210 224 179 153 130